Location: Marse
(42.1502°N, 110.9866°W)
Time: 01:39:37
(UTC+00:00)

QB50P2 - Pass Details

Date: 08 July 2022
Orbit: 590 x 605 km, 97.9° (Epoch: 15 August)

Event Time Altitude Azimuth Distance (km) Brightness Sun altitude
Rises 09:22:43 0° 5° (N) 2,866 ? -20.3°
Reaches altitude 10° 09:25:00 10° 357° (N) 1,959 ? -20.1°
Maximum altitude 09:28:57 39° 289° (WNW) 915 ? -19.7°
Enters shadow 09:29:49 35° 260° (W) 990 ? -19.6°
